EW1944 Weather Reports


Display with metric or nautical units.
time (UTC)temp
F
wind
direction
speed
MPH
gust
MPH
rain 1hr
in
rain 24hr
in
rain mn
in
humidity
%
barometer
mb
20260509200033 47 27 4.0 20.0 0.00 0.00 0.00 60 1004.2
20260509194511 47 342 2.0 12.0 0.00 0.00 0.00 58 1003.7
20260509193108 48 350 4.0 15.0 0.00 0.00 0.00 57 1002.9
20260509191530 49 359 2.0 12.0 0.00 0.00 0.00 55 1002.7
20260509190010 50 351 3.0 8.0 0.00 0.00 0.00 48 1002.3
20260509184558 51 11 4.0 21.0 0.00 0.00 0.00 45 1001.9
20260509183029 52 350 3.0 14.0 0.00 0.00 0.00 40 1001.5
20260509181515 53 59 4.0 15.0 0.00 0.00 0.00 37 1001.1
20260509180053 52 348 3.0 15.0 0.00 0.00 0.00 38 1001.1
20260509174535 51 326 3.0 8.0 0.00 0.00 0.00 37 1000.6
20260509173023 51 338 3.0 11.0 0.00 0.00 0.00 34 1000.5
20260509171510 51 16 2.0 7.0 0.00 0.00 0.00 36 1000.4
20260509170047 52 7 3.0 8.0 0.00 0.00 0.00 37 1000.2
20260509164529 51 329 2.0 8.0 0.00 0.00 0.00 36 1000.0
20260509163018 51 329 3.0 9.0 0.00 0.00 0.00 34 999.8
20260509161502 52 345 2.0 13.0 0.00 0.00 0.00 36 999.5
20260509160047 52 22 2.0 9.0 0.00 0.00 0.00 38 999.2
20260509154535 53 343 4.0 12.0 0.00 0.00 0.00 37 998.8
20260509153011 53 336 1.0 7.0 0.00 0.00 0.00 38 998.5
20260509151549 52 325 2.0 4.0 0.00 0.00 0.00 39 998.5
20260509150027 51 316 1.0 3.0 0.00 0.01 0.00 43 998.4
20260509144517 51 344 1.0 4.0 0.00 0.01 0.00 46 998.3
20260509143052 51 337 1.0 4.0 0.00 0.01 0.00 45 998.1
20260509141540 51 36 1.0 7.0 0.00 0.01 0.00 51 998.1
20260509140017 50 7 1.0 5.0 0.00 0.01 0.00 53 998.2
20260509134557 50 332 2.0 7.0 0.00 0.01 0.00 51 998.2
20260509133038 50 5 1.0 5.0 0.00 0.01 0.00 56 998.0
20260509131522 49 336 1.0 9.0 0.00 0.01 0.00 57 997.6
20260509130106 48 30 1.0 2.0 0.00 0.01 0.00 57 997.4
20260509124559 48 26 0.0 2.0 0.00 0.01 0.00 59 997.2
20260509123026 48 348 1.0 4.0 0.00 0.01 0.00 58 997.2
20260509121518 46 336 1.0 2.0 0.00 0.01 0.00 61 997.0
20260509120044 45 336 1.0 3.0 0.00 0.01 0.00 63 997.0
20260509114530 45 348 0.0 3.0 0.00 0.01 0.00 65 997.1
20260509113013 44 4 2.0 9.0 0.00 0.01 0.00 68 996.9
20260509111558 44 38 0.0 3.0 0.00 0.01 0.00 68 997.0
20260509110038 44 21 2.0 7.0 0.00 0.01 0.00 70 996.8
20260509104530 42 11 0.0 2.0 0.00 0.01 0.00 75 997.0
20260509103056 41 332 0.0 0.0 0.00 0.01 0.00 78 996.8
20260509103004 41 278 0.0 0.0 0.00 0.01 0.00 78 996.8
20260509101540 41 344 0.0 1.0 0.00 0.01 0.00 79 996.4
20260509100033 40 330 0.0 2.0 0.00 0.01 0.00 80 996.6
20260509094515 40 276 0.0 2.0 0.00 0.01 0.00 80 996.5
20260509093048 40 174 1.0 3.0 0.00 0.01 0.00 81 996.5
20260509091526 40 176 0.0 3.0 0.00 0.01 0.00 81 996.9
20260509090014 39 174 1.0 2.0 0.00 0.01 0.00 81 997.4
20260509084555 39 167 0.0 2.0 0.00 0.01 0.00 81 997.6
20260509083041 39 166 0.0 3.0 0.00 0.01 0.00 80 997.6
20260509081539 39 176 1.0 2.0 0.00 0.01 0.00 80 997.7
20260509080009 39 176 1.0 3.0 0.00 0.01 0.00 80 997.6
20260509074558 39 177 0.0 2.0 0.00 0.01 0.00 79 997.7
20260509073036 39 179 0.0 2.0 0.00 0.01 0.00 79 997.9
20260509071520 39 188 1.0 4.0 0.00 0.01 0.00 79 998.2
20260509070057 39 165 0.0 3.0 0.00 0.01 0.00 79 998.4
20260509070003 39 165 0.0 3.0 0.00 0.01 0.00 79 998.4
20260509064542 39 183 0.0 1.0 0.00 0.01 0.00 78 998.8
20260509063029 39 182 0.0 1.0 0.00 0.01 0.00 79 999.1
20260509061510 39 175 1.0 3.0 0.00 0.01 0.00 79 999.3
20260509054526 38 178 0.0 0.0 0.00 0.01 0.00 78 999.8
20260509053009 38 178 0.0 1.0 0.00 0.01 0.00 78 999.9
20260509051544 39 178 0.0 1.0 0.00 0.01 0.00 78 1000.1
20260509050033 38 177 0.0 2.0 0.00 0.01 0.00 78 1000.2
20260509044513 38 177 1.0 2.0 0.00 0.01 0.00 76 1000.5
20260509043045 39 177 0.0 0.0 0.00 0.01 0.00 74 1000.7
20260509041524 40 177 0.0 0.0 0.00 0.01 0.00 73 1001.1
20260509040059 40 177 0.0 1.0 0.00 0.03 0.01 72 1001.5
20260509034539 41 177 0.0 1.0 0.00 0.03 0.01 71 1001.7
20260509033018 42 177 0.0 0.0 0.00 0.03 0.01 71 1001.8
20260509031604 42 177 0.0 1.0 0.00 0.03 0.01 69 1002.0
20260509031502 42 177 0.0 1.0 0.00 0.03 0.01 69 1002.0
20260509030048 41 181 1.0 3.0 0.00 0.09 0.01 68 1002.1
20260509024526 42 105 0.0 1.0 0.00 0.09 0.01 64 1002.2
20260509023015 43 105 0.0 1.0 0.00 0.09 0.01 62 1002.4
20260509021552 44 83 0.0 0.0 0.00 0.09 0.01 56 1002.7
20260509020037 45 83 0.0 0.0 0.00 0.09 0.01 56 1002.8
20260509014526 45 36 0.0 1.0 0.00 0.09 0.01 54 1002.9
20260509013032 47 36 0.0 0.0 0.00 0.09 0.01 52 1003.0
20260509011600 48 36 0.0 0.0 0.00 0.09 0.01 50 1003.1
20260509011501 48 36 0.0 0.0 0.00 0.09 0.01 50 1003.1
20260509010050 49 36 0.0 2.0 0.00 0.09 0.01 48 1003.1
20260509004536 49 34 0.0 2.0 0.00 0.09 0.01 47 1003.0
20260509003025 50 21 0.0 2.0 0.00 0.09 0.01 44 1002.9
20260509001513 51 43 0.0 2.0 0.00 0.09 0.01 43 1002.8
20260509000051 51 30 0.0 2.0 0.00 0.09 0.01 42 1003.0
20260508234537 51 11 0.0 2.0 0.00 0.09 0.01 42 1003.1
20260508233019 52 24 0.0 3.0 0.00 0.09 0.01 42 1003.2
20260508231559 52 17 1.0 5.0 0.00 0.09 0.01 40 1003.4
20260508230055 53 9 1.0 7.0 0.00 0.09 0.01 37 1003.5
20260508224552 54 29 0.0 5.0 0.00 0.09 0.01 39 1003.6
20260508223023 55 25 1.0 8.0 0.00 0.09 0.01 40 1003.4
20260508221600 56 120 0.0 3.0 0.00 0.09 0.01 36 1003.5
20260508221501 56 120 0.0 3.0 0.00 0.09 0.01 36 1003.5
20260508220038 56 59 0.0 4.0 0.00 0.09 0.01 36 1003.5
20260508214523 57 21 1.0 4.0 0.00 0.09 0.01 35 1003.7
20260508213008 56 28 1.0 7.0 0.00 0.09 0.01 35 1003.7
20260508211551 57 13 0.0 3.0 0.00 0.09 0.01 38 1003.7
20260508210031 56 9 2.0 10.0 0.00 0.10 0.01 36 1003.8
20260508204518 56 28 0.0 4.0 0.00 0.10 0.01 37 1003.9
20260508203102 56 36 2.0 7.0 0.00 0.10 0.01 36 1004.1
20260508201533 56 27 1.0 9.0 0.00 0.10 0.01 35 1004.2